UFO 2 (USA 95)

Last updated on June 27, 2019, 3:44 a.m. UTC

1 22787U 93056A   19177.21431948  .00000129  00000-0  00000+0 0  9997
2 22787  11.1631  17.6825 0005719  90.1762 272.0648  1.00272130 93116
UTC
Height (km)
Latitude
Longitude
Inclination
Orbital Period
UTC large
Height (km)
Speed (km/s)
/
Latitude / Longitude
Inclination (degrees)
Orbital Period (minutes)
Azimuth
Elevation
Range (km)
Doppler Factor
iOS Compass Heading
iOS Angle

Next 30 passes for location: Hong Kong

Rise time Rise Azimuth (degrees) Set time Set Azimuth (degrees) Duration Max altitude (degrees)

No matching passes for this satellites